Miscellaneous Local Product
Issued by NWS North Platte, NE

Home | Current Version | Previous Version | Text Only | Print | Product List | Glossary On
Versions: 1 2 3 4 5 6 7 8 9 10 11 12 13 14 15 16 17 18 19 20 21 22 23 24 25 26 27 28 29 30 31 32 33 34 35 36 37 38 39 40 41 42 43 44 45 46 47 48 49 50
000
AXUS43 KLBF 230610
MISLBF


WESTERN AND NORTH CENTRAL NEBRASKA HOURLY WEATHER ROUNDUP
NATIONAL WEATHER SERVICE NORTH PLATTE NE
100 AM CDT WED AUG 23 2017

NOTE: "FAIR" INDICATES FEW OR NO CLOUDS BELOW 12,000 FEET WITH NO
SIGNIFICANT WEATHER AND/OR OBSTRUCTIONS TO VISIBILITY.

NOTE: STATIONS NOT REPORTING VARIABLES SUCH AS SKY/WEATHER OR
PRESSURE ARE PROVIDED BY RAWS AND APRS NETWORKS AND ARE NOT UNDER
NATIONAL WEATHER SERVICE QUALITY CONTROL.

...OBSERVATIONS IN AND NEAR THE EASTERN PANHANDLE OF NEBRASKA...

CITY           SKY/WX    TMP DP  RH WIND       PRES   REMARKS
PINE RIDGE     CLEAR     71  50  47 S16G31    30.10F
GORDON         FAIR      65  49  55 S6        30.14F
CHADRON        CLEAR     71  49  45 S23G32    30.07F
ALLIANCE       CLEAR     62  50  64 S15       30.16F
SIDNEY         CLEAR     65  54  67 S16       30.20F
$$

...OBSERVATIONS IN NORTHERN NEBRASKA AND FAR SOUTHERN SOUTH DAKOTA...

CITY           SKY/WX    TMP DP  RH WIND       PRES   REMARKS
WINNER         FAIR      61  54  77 SE9       30.13F
VALENTINE      CLEAR     62  50  64 CALM      30.14F
THEDFORD       CLEAR     64  52  66 S12       30.19S
AINSWORTH      CLEAR     59  53  79 S7        30.16F
O`NEILL        CLEAR     59  54  83 S5        30.17F
ORD            CLEAR     58  54  86 CALM      30.17F
BROKEN BOW     CLEAR     57  53  86 CALM      30.19F
VALENTINE NWR    N/A     58  51  77 S6          N/A
HALSEY           N/A     63  51  63 S6          N/A
BUTTE            N/A     60  52  75 SE3         N/A
CHAMBERS         N/A     57  51  82 CALM        N/A
EWING            N/A     55  53  92 CALM        N/A
$$

...OBSERVATIONS IN SOUTHWEST NEBRASKA AND FAR NORTHEAST COLORADO...

CITY           SKY/WX    TMP DP  RH WIND       PRES   REMARKS
WRAY           FAIR      63  50  63 SE13      30.22S
HOLYOKE        FAIR      63  52  67 S9        30.21S
IMPERIAL       CLEAR     61  51  70 SE12      30.21S
OGALLALA       CLEAR     63  53  70 E3        30.20F
NORTH PLATTE   CLEAR     57  55  93 E7        30.20F
MCCOOK         CLEAR     61  54  77 SE7       30.21S
LEXINGTON      CLEAR     59  54  83 SE5       30.21S
STAPLETON        N/A     58  53  84 CALM        N/A
GOTHENBURG       N/A     60  52  75 CALM        N/A
CALLAWAY         N/A     56  54  94 S7          N/A
$$

...OBSERVATIONS IN CENTRAL LINCOLN COUNTY AREA...

CITY           SKY/WX    TMP DP  RH WIND       PRES   REMARKS
N.P. AIRPORT   CLEAR     57  55  93 E7        30.20F
N.P. DOWNTOWN    N/A     62  54  75 CALM        N/A
N.P. SOUTHEAST   N/A     61  54  77 CALM        N/A
N.P. HILLCREST   N/A     60  54  81 SE7         N/A
$$

...SOME OBSERVATIONS FROM AROUND THE REGION...

CITY           SKY/WX    TMP DP  RH WIND       PRES   REMARKS
DENVER         CLOUDY    69  44  40 S13       30.20F
LIMON          CLEAR     59  56  89 S12       30.29F
ASPEN          CLOUDY    53  42  66 SW8       30.43F
LARAMIE        CLEAR     54  50  86 S6        30.32F
CASPER         CLEAR     58  41  53 W5        30.18S
CHEYENNE       CLEAR     58  53  84 W6        30.25F
SCOTTSBLUFF    CLEAR     63  52  67 SE14      30.15F
GRAND ISLAND   CLEAR     59  55  87 S6        30.20S
OMAHA          CLEAR     61  54  77 CALM      30.18R
SIOUX FALLS    CLEAR     56  54  93 CALM      30.15F
PIERRE         CLEAR     58  49  72 E7        30.11F
RAPID CITY     CLEAR     61  46  57 SE6       30.08F
BISMARCK       CLEAR     53  49  86 CALM      30.13S
KANSAS CITY    CLEAR     59  53  80 NE5       30.16R
HILL CITY      CLEAR     59  53  80 E3        30.23S
WICHITA        PTCLDY    67  57  70 NE8       30.16R
DODGE CITY       N/A    N/A N/A N/A MISG      30.21S
OKLAHOMA CITY  CLOUDY    70  70 100 CALM      30.10R
DALLAS         MOCLDY    85  70  60 S3        29.97F
AMARILLO       CLOUDY    66  63  90 CALM      30.21S
$$




USA.gov is the U.S. government's official web portal to all federal, state and local government web resources and services.